Hourly Data Report for October 06, 2016

All times are specified in Local Standard Time (LST). Add 1 hour to adjust for Daylight Saving Time where and when it is observed.

ARVIAT A
NUNAVUT

61°05'38.000" N
94°04'18.000" W
10.40 m
2300427
71174
YEK

Download Data

Hourly Data (October 2016)
Hourly Data Report for October 6, 2016
Temp Definition
°C
Dew Point Temp Definition
°C
Rel Hum Definition
%
Wind Dir Definition
10's deg

Wind Spd Definition
km/h
Visibility Definition
km
Stn Press Definition
kPa
Hmdx Definition


Wind Chill Definition


Weather Definition


TIME
00:00 Legend Double Dagger 1.1 0.8 98 5 28 9.7 102.30     Rain,Fog
01:00 Legend Double Dagger 0.7 0.6 99 5 24 2.4 102.28     Snow
02:00 Legend Double Dagger 0.8 0.5 98 5 21 4.8 102.26     Snow
03:00 Legend Double Dagger 0.6 0.5 99 1 26 14.5 102.22     Rain
04:00 Legend Double Dagger 0.5 0.4 99 1 28 11.3 102.20     Rain,Snow
05:00 Legend Double Dagger 0.2 0.2 100 1 22 16.1 102.17     Rain
06:00 Legend Double Dagger 0.4 0.4 100 1 24 2.8 102.16     Snow
07:00 Legend Double Dagger 0.4 0.3 99 1 30 4.8 102.15     Snow
08:00 Legend Double Dagger 0.4 0.0 97 1 32 2.0 102.15     Snow
09:00 Legend Double Dagger 0.0 -0.4 97 1 32 6.4 102.16   -7 Rain,Fog
10:00 Legend Double Dagger -0.1 -0.8 95 1 32 16.1 102.17   -7 LegendNANA
11:00 Legend Double Dagger -0.2 -1.1 94 36 32 16.1 102.19   -7 Snow
12:00 Legend Double Dagger -0.1 -0.4 98 1 34 6.4 102.21   -7 Snow
13:00 Legend Double Dagger 0.3 -0.1 97 1 28 4.8 102.23     Snow
14:00 Legend Double Dagger 0.8 -0.8 89 1 30 16.1 102.27     LegendNANA
15:00 Legend Double Dagger 0.0 -1.5 90 36 28 16.1 102.33   -6 LegendNANA
16:00 Legend Double Dagger 0.1 -1.7 88 36 26 16.1 102.37     LegendNANA
17:00 Legend Double Dagger 0.5 -1.5 86 36 26 16.1 102.39     LegendNANA
18:00 Legend Double Dagger 0.2 -1.7 87 36 18 16.1 102.44     Rain
19:00 Legend Double Dagger -0.1 -1.3 92 1 21 16.1 102.48   -6 LegendNANA
20:00 Legend Double Dagger 0.0 -1.8 88 1 24 16.1 102.53   -6 Rain
21:00 Legend Double Dagger -0.2 -1.8 89 1 28 16.1 102.54   -7 LegendNANA
22:00 Legend Double Dagger -0.1 -1.7 89 1 22 16.1 102.56   -6 LegendNANA
23:00 Legend Double Dagger -0.2 -1.1 94 1 22 9.7 102.58   -6 Rain,Fog

Notes on Data Quality.

Legend

  • E = Estimated
  • M = Missing
  • NA = Not Available
  • ‡ = Partner data that is not subject to review by the National Climate Archives
Date modified: